Skip Page Navigation
NASA JPL Caltech
NASA Logo - Jet Propulsion Laboratory + View the NASA Portal
+ Center for Near-Earth Object Studies
JPL Home Earth Solar System Stars & Galaxies Technology
JPL Solar System Dynamics
BODIES ORBITS EPHEMERIDES TOOLS PHYSICAL DATA DISCOVERY FAQ SITE MAP
IMPORTANT: The SSD Announcement email list is now available. Major changes are coming in the near future, including possible hostname and/or URL changes. To be notified of such changes, subscribe to this email list.

Please visit this page for more details.


JPL Small-Body Database Browser
Search: [ help ]  
65758 (1994 PG3)
Classification: Main-belt Asteroid          SPK-ID: 2065758
Ephemeris | Orbit Diagram | Orbital Elements | Mission Design | Physical Parameters | Discovery Circumstances ]

[ show orbit diagram ]
Orbital Elements at Epoch 2458600.5 (2019-Apr-27.0) TDB
Reference: JPL 16 (heliocentric ecliptic J2000)
 Element Value Uncertainty (1-sigma)   Units 
e .1153713977727578 4.8323e-08  
a 2.767740091295944 2.3581e-08 au
q 2.448422048291431 1.2938e-07 au
i 9.613719116929628 6.3142e-06 deg
node 149.1804095923711 3.2576e-05 deg
peri 114.095341915208 4.3846e-05 deg
M 186.3583272656043 2.9901e-05 deg
tp 2459411.718495591957
(2021-Jul-16.21849559)
0.00014356 TDB
period 1681.846608675614
4.60
2.1494e-05
5.885e-08
d
yr
n .2140504360760256 2.7355e-09 deg/d
Q 3.087058134300457 2.6302e-08 au
  Orbit Determination Parameters
   # obs. used (total)      494  
   data-arc span      9221 days (25.25 yr)  
   first obs. used      1994-08-10  
   last obs. used      2019-11-08  
   planetary ephem.      DE431  
   SB-pert. ephem.      SB431-N16  
   condition code      0  
   norm. resid. RMS      .62516  
   source      ORB  
   producer      Otto Matic  
   solution date      2019-Dec-04 05:47:13  

Additional Information
 Earth MOID = 1.45135 au 
 Jupiter MOID = 2.05917 au 
 T_jup = 3.309 
[ show covariance matrix ]

Ephemeris | Orbit Diagram | Orbital Elements | Mission Design | Physical Parameters | Discovery Circumstances ]

Physical Parameter Table
Parameter Symbol Value Units Sigma Reference Notes
absolute magnitude H 15.3   n/a MPO385235  

65758 (1994 PG3)          Discovered 1994-Aug-10 by Elst, E. W. at La Silla
Reference: 20030910/Numbers.arcLast Updated: 2004-04-19

Alternate Designations
 1994 PG3 = 1997 EP55 = 2002 EB111 
Ephemeris | Orbit Diagram | Orbital Elements | Mission Design | Physical Parameters | Discovery Circumstances ]
ABOUT SSD CREDITS/AWARDS PRIVACY/COPYRIGHT GLOSSARY LINKS
FirstGov 2020-Jan-17 22:06 UT
(server date/time)  
NASA Home Page
Site Manager:   Ryan S. Park
Webmaster  Alan B. Chamberlin